Location: Bois de la Silve
(44.4667°N, 6.7833°E)
Time: 08:23:53
(UTC+00:00)

NOSS 2-1 (D) - Pass Details

Date: 14 July 2020
Orbit: 447 x 1756 km, 63.3° (Epoch: 01 August)

Event Time Altitude Azimuth Distance (km) Brightness Sun altitude
Rises 00:30:29 0° 323° (NW) 3,061 7.7 -22.9°
Reaches altitude 10° 00:32:30 10° 324° (NW) 2,284 7.0 -22.8°
Maximum altitude 00:37:48 84° 53° (NE) 956 4.4 -22.5°
Enters shadow 00:43:40 17° 141° (SE) 2,595 6.4 -22.3°
